Weather in Polnoye Yaltunovo

Russia / Ryazan Oblast     53°59′09″N   41°51′45″E
temp.,
°C
wind,
m/s
gust,
m/s
humid.,
%
clouds,
%
prec.,
mm/h
press.,
hPa
HPBL,
m
27 february, sat
sat2700:00+2w7159290 0.0 1002678
03:00+1w7139295 0.1 1002771
06:00+1w71496100 0.1 1000710
09:000wnw91498100 0.4 1000820
12:00−7nnw81188100 0.6 1003779
15:00−8nnw71188100 0.8 1006770
18:00−10nnw51090100 0.1 1009606
21:00−12nw489599 0.1 1012234
28 february, sun
sun2800:00−13nw489695 0.0 1012169
03:00−15nw369559 0.0 1014104
06:00−15nw349510 0.0 101564
09:00−13nw359432 0.0 1015240
12:00−9nw348991 0.0 1015420
15:00−7nnw359095 0.1 1016516
18:00−8nnw2493100 0.1 1016101
21:00−8n2395100 0.1 101967
1 march, mon
mon100:00−11ne1296100 0.1 102021
03:00−13n1197100 0.1 102221
06:00−14n129663 0.0 102320
09:00−11nnw119455 0.0 102442
12:00−7w228970 0.0 1024288
15:00−5wsw249085 0.0 1024430
18:00−5wsw479596 0.0 1022290
21:00−3wsw599598 0.1 1020435
2 march, tue
tue200:00−3sw61195100 0.1 1017423
03:00−1wsw71496100 0.8 1013616
06:000w71497100 0.9 1010676
09:000wnw71397100 1.5 1008724
12:00+1nw61297100 0.1 1008790
15:00+1nw6118895 0.3 1009864
18:00−2nw5128762 0.0 1009310
21:00−1nw6139077 0.1 1010628
3 march, wed
wed300:00−2nw6139098 0.1 1010624
03:00−3nw6109296 0.1 1011633
06:00−4nw5129398 0.1 1012434
09:00−3nw6118994 0.1 1014676
12:00−2nw7119196 0.1 1014896
15:00−2nw6108698 0.2 1015941
18:00−2nw51190100 0.1 1015632
21:00−4wnw4109297 0.1 1017236